Change the Weather History Date:

Monday, September 30, 2013

  Actual Average Record
Temperature  
Mean Temperature 66 °F 70 °F  
Max Temperature 80 °F 80 °F 92 °F (1964)
Min Temperature 52 °F 59 °F 41 °F (1967)
Degree Days  
Heating Degree Days 0 1  
Month to date heating degree days 0 7  
Since 1 July heating degree days 0 9  
Cooling Degree Days 1 6  
Month to date cooling degree days 298 286  
Year to date cooling degree days 1925 1956  
Growing Degree Days 14 (Base 50)    
Moisture  
Dew Point 55 °F    
Average Humidity 70    
Maximum Humidity 96    
Minimum Humidity 43    
Precipitation  
Precipitation 0.00 in 0.12 in 4.95 in (1964)
Month to date precipitation 0.91 3.67  
Year to date precipitation 47.37 34.15  
Sea Level Pressure  
Sea Level Pressure 30.04 in    
Wind  
Wind Speed 2 mph (NNE)    
Max Wind Speed 10 mph    
Max Gust Speed 12 mph    
Visibility 10 miles    
Events      
T = Trace of Precipitation, MM = Missing Value Source: NWS Daily Summary

Daily Weather History Graph

Daily Weather History Graph

Search for Another Location

Airport or City:

Trip Planner

Search our weather history database for the weather conditions in past years. The results will help you decide how hot, cold, wet, or windy it might be!

Date:

Astronomy

Sep. 30, 2013 Rise Set
Actual Time 7:12 AM EDT 7:04 PM EDT
Civil Twilight 6:47 AM EDT 7:29 PM EDT
Nautical Twilight 6:18 AM EDT 7:58 PM EDT
Astronomical Twilight 5:49 AM EDT 8:27 PM EDT
Moon 2:58 AM EDT (9/30) 4:25 PM EDT (9/30)
Length of Visible Light 12h 41m
Length of Day
11h 51m
Waning Crescent, 19% of the Moon is Illuminated
Sep 30
Waning Crescent
Oct 4
New
Oct 11
First Quarter
Oct 18
Full
Oct 26
Last Quarter

Hourly Weather History & Observations

Time (EDT) Temp. Dew Point Humidity Pressure Visibility Wind Dir Wind Speed Gust Speed Precip Events Conditions
12:53 AM 54.0 °F 51.1 °F 90% 30.02 in 10.0 mi Calm Calm - N/A   Clear
1:53 AM 52.0 °F 50.0 °F 93% 30.02 in 10.0 mi Calm Calm - N/A   Clear
2:53 AM 55.0 °F 51.1 °F 86% 30.02 in 10.0 mi NNW 3.5 mph - N/A   Scattered Clouds
3:53 AM 59.0 °F 53.1 °F 81% 30.03 in 10.0 mi North 5.8 mph - N/A   Overcast
4:53 AM 57.0 °F 52.0 °F 83% 30.03 in 10.0 mi NNE 3.5 mph - N/A   Mostly Cloudy
5:53 AM 57.9 °F 53.1 °F 84% 30.05 in 10.0 mi NNW 3.5 mph - N/A   Overcast
6:53 AM 57.0 °F 53.1 °F 87% 30.06 in 10.0 mi Calm Calm - N/A   Partly Cloudy
7:53 AM 57.9 °F 54.0 °F 87% 30.08 in 10.0 mi North 3.5 mph - N/A   Clear
8:53 AM 60.1 °F 55.9 °F 86% 30.08 in 10.0 mi ENE 4.6 mph - N/A   Clear
9:53 AM 66.0 °F 57.0 °F 73% 30.09 in 10.0 mi NE 5.8 mph - N/A   Clear
10:53 AM 70.0 °F 57.9 °F 65% 30.09 in 10.0 mi NE 4.6 mph - N/A   Clear
11:53 AM 73.0 °F 57.9 °F 59% 30.07 in 10.0 mi East 5.8 mph - N/A   Clear
12:53 PM 73.9 °F 57.0 °F 55% 30.05 in 10.0 mi NNE 4.6 mph - N/A   Scattered Clouds
1:53 PM 75.9 °F 55.0 °F 48% 30.04 in 10.0 mi Calm Calm - N/A   Mostly Cloudy
2:53 PM 75.9 °F 54.0 °F 46% 30.01 in 10.0 mi Calm Calm - N/A   Mostly Cloudy
3:53 PM 75.9 °F 53.1 °F 45% 30.00 in 10.0 mi East 4.6 mph - N/A   Overcast
4:53 PM 75.9 °F 53.1 °F 45% 30.00 in 10.0 mi Calm Calm - N/A   Scattered Clouds
5:53 PM 77.0 °F 54.0 °F 45% 30.00 in 10.0 mi NNE 5.8 mph - N/A   Clear
6:53 PM 69.1 °F 57.9 °F 68% 30.02 in 10.0 mi Calm Calm - N/A   Clear
7:53 PM 64.0 °F 57.9 °F 80% 30.04 in 10.0 mi Calm Calm - N/A   Clear
8:53 PM 62.1 °F 57.0 °F 84% 30.05 in 10.0 mi Calm Calm - N/A   Scattered Clouds
9:53 PM 60.1 °F 55.9 °F 86% 30.07 in 10.0 mi Calm Calm - N/A   Clear
10:53 PM 59.0 °F 55.9 °F 90% 30.07 in 10.0 mi Calm Calm - N/A   Clear
11:53 PM 57.9 °F 55.0 °F 90% 30.06 in 9.0 mi Calm Calm - N/A   Clear